{"data":{"norad_id":57257,"intl_designator":"2023-094AR","name":"STARLINK-5503","alt_names":[],"object_type":"PAYLOAD","status":"ACTIVE","operator":null,"country":"US","launch_date":"2023-07-07","launch_site_code":"AFWTR","launch_vehicle":null,"mission":null,"orbit_class":"UNKNOWN","rcs_meters":null,"size_class":null,"mass_kg":null,"dimensions":null,"purposes":["comms"],"wikipedia_slug":null,"has_3d_model":false,"image_url":null,"decayed_at":null,"tle_current":{"epoch":"2026-05-24T21:17:57.446016Z","epoch_age_seconds":80952,"freshness":"FRESH","line1":"1 57257U 23094AR  26144.88747044  .00000459  00000+0  26209-4 0  9993","line2":"2 57257  43.0033 309.5441 0001197 250.0429 110.0294 15.27577052159550","mean_motion":15.27577052,"eccentricity":0.0001197,"inclination_deg":43.0033,"raan_deg":309.5441,"arg_perigee_deg":250.0429,"mean_anomaly_deg":110.0294,"bstar":2.6209e-5,"rev_number":15955,"period_min":94.266930634672,"perigee_km":482.23663839405,"apogee_km":483.87920845872,"semimajor_km":6861.1949234264,"source":"CELESTRAK","updated_at":"2026-05-25T13:38:18.280201Z"}}}